KF6ILA Weather Reports


time (UTC)temp
C
wind
direction
speed
KPH
gust
KPH
rain 1hr
cm
rain 24hr
cm
rain mn
cm
humidity
%
barometer
mb
20260904012939 18 264 24.1 35.4 0.00 0.00 0.00 66 1012.8
20260904012442 18 260 24.1 35.4 0.00 0.00 0.00 65 1012.7
20260904011945 18 263 27.4 35.4 0.00 0.00 0.00 63 1012.8
20260904011448 18 259 27.4 37.0 0.00 0.00 0.00 62 1012.9
20260904010951 18 255 24.1 37.0 0.00 0.00 0.00 61 1012.9
20260904010454 19 261 27.4 37.0 0.00 0.00 0.00 60 1012.8
20260904005957 19 254 25.7 38.6 0.00 0.00 0.00 59 1012.9
20260904003512 20 250 22.5 35.4 0.00 0.00 0.00 55 1012.9
20260904002518 20 256 27.4 38.6 0.00 0.00 0.00 54 1012.9
20260904002021 20 257 29.0 38.6 0.00 0.00 0.00 54 1012.8
20260904001524 20 253 29.0 38.6 0.00 0.00 0.00 53 1012.9
20260904001027 21 251 24.1 37.0 0.00 0.00 0.00 52 1012.8
20260904000530 21 261 25.7 38.6 0.00 0.00 0.00 52
20260903235536 21 252 22.5 37.0 0.00 0.00 0.00 52 1012.8
20260903235039 22 267 24.1 38.6 0.00 0.00 0.00 51 1012.7
20260903234542 22 252 22.5 38.6 0.00 0.00 0.00 51 1012.6
20260903233548 21 247 27.4 38.6 0.00 0.00 0.00 52 1012.9
20260903232553 22 255 30.6 38.6 0.00 0.00 0.00 51 1013.0
20260903232057 22 255 24.1 38.6 0.00 0.00 0.00 49 1013.0
20260903231600 22 252 27.4 40.2 0.00 0.00 0.00 50 1013.0
20260903230606 22 255 27.4 40.2 0.00 0.00 0.00 49 1013.2
20260903230109 22 280 22.5 41.8 0.00 0.00 0.00 52 1013.1
20260903225612 -17 258 32.2 41.8 0.00 0.00 0.00
20260903225115 22 261 29.0 40.2 0.00 0.00 0.00 50 1013.2
20260903224120 23 286 24.1 33.8 0.00 0.00 0.00 49 1013.3
20260903223624 23 284 24.1 33.8 0.00 0.00 0.00 48 1013.5
20260903223126 23 257 22.5 41.8 0.00 0.00 0.00 47 1013.8
20260903222630 23 262 27.4 41.8 0.00 0.00 0.00 46 1013.6
20260903222133 23 253 22.5 38.6 0.00 0.00 0.00 46 1013.9
20260903221636 23 245 24.1 37.0 0.00 0.00 0.00 43 1013.8
20260903214654 24 257 22.5 35.4 0.00 0.00 0.00 35 1014.1
20260903214157 23 261 19.3 38.6 0.00 0.00 0.00 34 1014.2
20260903213700 23 238 25.7 38.6 0.00 0.00 0.00 33 1014.3
20260903213203 23 252 20.9 37.0 0.00 0.00 0.00 32 1014.1
20260903212706 24 265 20.9 37.0 0.00 0.00 0.00 33 1014.3
20260903211712 24 258 24.1 38.6 0.00 0.00 0.00 32 1014.3
20260903211215 24 255 17.7 41.8 0.00 0.00 0.00 30 1014.2
20260903204730 23 261 14.5 38.6 0.00 0.00 0.00 30 1014.3
20260903203239 23 237 22.5 38.6 0.00 0.00 0.00 29 1014.6
20260903202742 23 264 25.7 37.0 0.00 0.00 0.00 29 1014.6
20260903201335 23 245 20.9 35.4 0.00 0.00 0.00 29 1014.6
20260903201251 23 245 20.9 35.4 0.00 0.00 0.00 29 1014.6
20260903200257 23 277 16.1 38.6 0.00 0.00 0.00 29 1014.6
20260903195800 23 250 24.1 38.6 0.00 0.00 0.00 29 1014.8
20260903195306 23 259 22.5 38.6 0.00 0.00 0.00 29 1015.0
20260903194806 23 263 29.0 38.6 0.00 0.00 0.00 28 1014.9
20260903194309 23 272 20.9 38.6 0.00 0.00 0.00 27 1014.8
20260903193812 23 288 20.9 37.0 0.00 0.00 0.00 27 1014.8
20260903193315 23 255 20.9 38.6 0.00 0.00 0.00 27 1014.8
20260903192818 23 254 29.0 38.6 0.00 0.00 0.00 27 1015.1
20260903192321 23 270 20.9 40.2 0.00 0.00 0.00 27 1014.9
20260903191824 23 239 17.7 40.2 0.00 0.00 0.00 26 1015.2
20260903190830 23 236 24.1 35.4 0.00 0.00 0.00 23 1015.3
20260903185836 23 244 25.7 37.0 0.00 0.00 0.00
20260903185339 23 253 20.9 33.8 0.00 0.00 0.00 24 1015.4
20260903184842 22 250 20.9 37.0 0.00 0.00 0.00 24 1015.4
20260903184345 22 237 24.1 37.0 0.00 0.00 0.00 24 1015.5
20260903183848 22 248 22.5 37.0 0.00 0.00 0.00 26 1015.4
20260903183351 22 277 20.9 35.4 0.00 0.00 0.00 26 1015.5
20260903182854 22 271 19.3 35.4 0.00 0.00 0.00 25 1015.7
20260903181900 22 274 22.5 35.4 0.00 0.00 0.00 26 1015.5
20260903180906 22 250 22.5 33.8 0.00 0.00 0.00 25 1015.8
20260903175415 22 254 14.5 32.2 0.00 0.00 0.00 27 1015.9
20260903174917 22 255 19.3 32.2 0.00 0.00 0.00 26 1015.8
20260903173427 21 229 17.7 32.2 0.00 0.00 0.00 27 1015.8
20260903172930 21 259 20.9 32.2 0.00 0.00 0.00 27 1015.8
20260903171936 20 255 20.9 37.0 0.00 0.00 0.00 29 1015.8
20260903171439 20 254 24.1 37.0 0.00 0.00 0.00 28 1015.7
20260903170942 20 265 19.3 37.0 0.00 0.00 0.00 29 1015.7
20260903165947 20 265 25.7 35.4 0.00 0.00 0.00 28 1015.7
20260903165451 20 253 20.9 33.8 0.00 0.00 0.00 30 1015.7
20260903164954 19 251 22.5 35.4 0.00 0.00 0.00 30 1015.7
20260903164457 19 245 22.5 37.0 0.00 0.00 0.00 30 1015.7
20260903163502 19 252 24.1 38.6 0.00 0.00 0.00 31 1015.6
20260903163006 18 253 22.5 32.2 0.00 0.00 0.00 31 1015.5
20260903162508 18 259 20.9 38.6 0.00 0.00 0.00 32 1015.5
20260903161514 18 272 22.5 33.8 0.00 0.00 0.00 31 1015.5
20260903155030 18 250 20.9 35.4 0.00 0.00 0.00 30 1015.3
20260903154533 18 254 20.9 35.4 0.00 0.00 0.00 30 1015.3
20260903154036 18 243 19.3 30.6 0.00 0.00 0.00 30 1015.4
20260903153539 17 258 20.9 33.8 0.00 0.00 0.00 30 1015.3
20260903153042 17 249 16.1 33.8 0.00 0.00 0.00 30 1015.3
20260903152734 17 261 20.9 35.4 0.00 0.00 0.00 30 1015.3
20260903152544 17 261 20.9 35.4 0.00 0.00 0.00 30 1015.3
20260903152048 17 250 22.5 35.4 0.00 0.00 0.00 30 1015.4
20260903151054 17 252 24.1 33.8 0.00 0.00 0.00 29 1014.5
20260903150557 17 252 20.9 33.8 0.00 0.00 0.00 28 1014.5
20260903150100 17 249 20.9 33.8 0.00 0.00 0.00 28 1014.5
20260903145106 16 248 19.3 33.8 0.00 0.00 0.00 24 1014.4
20260903144608 16 256 22.5 33.8 0.00 0.00 0.00 22 1014.4
20260903144112 16 246 25.7 33.8 0.00 0.00 0.00 22 1014.4
20260903143614 16 242 24.1 32.2 0.00 0.00 0.00 22 1014.3
20260903143117 16 246 20.9 35.4 0.00 0.00 0.00 21 1014.3
20260903142620 16 251 20.9 35.4 0.00 0.00 0.00 23 1014.1
20260903142123 16 248 24.1 37.0 0.00 0.00 0.00 21 1014.1
20260903141628 16 250 24.1 37.0 0.00 0.00 0.00 20 1014.0
20260903141129 16 250 25.7 37.0 0.00 0.00 0.00 18 1014.0
20260903140632 16 254 24.1 37.0 0.00 0.00 0.00 17 1013.9
20260903140135 16 252 25.7 37.0 0.00 0.00 0.00 18 1013.8
20260903135638 15 256 20.9 33.8 0.00 0.00 0.00 18 1013.7
20260903135141 15 263 24.1 33.8 0.00 0.00 0.00 18 1013.6
20260903134644 15 263 22.5 35.4 0.00 0.00 0.00 17 1013.5
20260903133650 15 259 25.7 37.0 0.00 0.00 0.00 17 1013.6
20260903132657 15 257 25.7 38.6 0.00 0.00 0.00 16 1013.6
20260903132159 15 259 25.7 38.6 0.00 0.00 0.00 16 1013.6
20260903131702 15 262 24.1 38.6 0.00 0.00 0.00 17 1013.5
20260903130708 15 261 24.1 32.2 0.00 0.00 0.00 17 1013.5
20260903130211 15 257 24.1 32.2 0.00 0.00 0.00 17 1013.5
20260903125714 15 255 22.5 37.0 0.00 0.00 0.00 16 1013.5
20260903125217 15 253 25.7 37.0 0.00 0.00 0.00 14 1013.5
20260903124720 15 254 25.7 35.4 0.00 0.00 0.00 14 1013.6
20260903124224 15 254 24.1 40.2 0.00 0.00 0.00 15 1013.6
20260903123726 15 256 27.4 40.2 0.00 0.00 0.00 15 1013.4
20260903123229 15 262 22.5 35.4 0.00 0.00 0.00 14 1013.3
20260903122732 15 258 24.1 35.4 0.00 0.00 0.00 13 1013.4
20260903122235 15 255 20.9 35.4 0.00 0.00 0.00 12 1013.3
20260903121738 15 253 22.5 35.4 0.00 0.00 0.00 12 1013.4
20260903121241 15 257 24.1 37.0 0.00 0.00 0.00 13 1013.4
20260903120744 15 257 25.7 37.0 0.00 0.00 0.00 14 1013.3
20260903120247 15 255 25.7 37.0 0.00 0.00 0.00 15 1013.4
20260903115750 15 259 22.5 35.4 0.00 0.00 0.00 13 1013.3
20260903115253 15 259 24.1 35.4 0.00 0.00 0.00 13 1013.5
20260903114756 15 255 20.9 35.4 0.00 0.00 0.00 12 1013.6
20260903114259 15 255 22.5 35.4 0.00 0.00 0.00 11 1013.6
20260903113803 15 250 24.1 35.4 0.00 0.00 0.00 11 1013.6
20260903113305 15 248 24.1 35.4 0.00 0.00 0.00 10 1013.6
20260903112809 15 249 25.7 38.6 0.00 0.00 0.00 10 1013.6
20260903112311 15 246 24.1 38.6 0.00 0.00 0.00 11 1013.6
20260903111814 15 246 24.1 38.6 0.00 0.00 0.00 10 1013.6
20260903111317 15 250 24.1 38.6 0.00 0.00 0.00 10 1013.6
20260903110820 15 248 27.4 37.0 0.00 0.00 0.00 10 1013.7
20260903110323 15 246 29.0 37.0 0.00 0.00 0.00 10 1013.8
20260903105826 15 245 29.0 37.0 0.00 0.00 0.00 10 1013.8
20260903105329 15 244 29.0 38.6 0.00 0.00 0.00 10 1013.9
20260903104832 15 245 27.4 38.6 0.00 0.00 0.00 10 1013.7
20260903104335 15 245 30.6 38.6 0.00 0.00 0.00 10 1013.9
20260903103838 15 246 27.4 37.0 0.00 0.00 0.00 10 1013.9
20260903103341 15 246 27.4 35.4 0.00 0.00 0.00 10 1013.9
20260903102844 15 247 27.4 38.6 0.00 0.00 0.00 10 1013.9
20260903102347 15 247 27.4 38.6 0.00 0.00 0.00 10 1013.8
20260903101850 15 249 27.4 35.4 0.00 0.00 0.00 10 1013.9
20260903101353 15 248 25.7 35.4 0.00 0.00 0.00 10 1014.0
20260903100856 15 253 24.1 38.6 0.00 0.00 0.00 10 1014.1
20260903100359 15 251 27.4 38.6 0.00 0.00 0.00 10 1014.0
20260903095902 15 252 25.7 40.2 0.00 0.00 0.00 10 1014.0
20260903095405 15 256 30.6 40.2 0.00 0.00 0.00 10 1013.9
20260903094908 15 249 27.4 41.8 0.00 0.00 0.00 10 1014.0
20260903094411 15 258 29.0 43.5 0.00 0.00 0.00 10 1014.0
20260903093915 15 255 30.6 43.5 0.00 0.00 0.00 10 1013.9
20260903093417 15 260 32.2 45.1 0.00 0.00 0.00 10 1013.9
20260903092920 15 258 32.2 45.1 0.00 0.00 0.00 10 1014.0
20260903092423 15 255 32.2 45.1 0.00 0.00 0.00 10 1013.9
20260903091927 16 258 30.6 45.1 0.00 0.00 0.00 10 1013.8
20260903091429 16 256 30.6 45.1 0.00 0.00 0.00 10 1013.6
20260903090933 16 259 32.2 46.7 0.00 0.00 0.00 10 1013.6
20260903090435 16 257 33.8 46.7 0.00 0.00 0.00 10 1013.6
20260903085939 16 257 35.4 51.5 0.00 0.00 0.00 11 1013.6
20260903085442 16 259 35.4 51.5 0.00 0.00 0.00 11 1013.6
20260903084944 16 258 35.4 49.9 0.00 0.00 0.00 12 1014.5
20260903084447 16 260 33.8 51.5 0.00 0.00 0.00 12 1014.5
20260903083951 16 251 33.8 51.5 0.00 0.00 0.00 12 1014.5
20260903083454 16 255 37.0 51.5 0.00 0.00 0.00 13 1014.8
20260903082957 16 253 37.0 51.5 0.00 0.00 0.00 14 1014.7
20260903082459 15 255 38.6 49.9 0.00 0.00 0.00 15 1014.9
20260903082002 15 255 38.6 49.9 0.00 0.00 0.00 16 1014.9
20260903081009 15 256 32.2 46.7 0.00 0.00 0.00 19 1014.9
20260903080512 15 255 33.8 46.7 0.00 0.00 0.00 20 1015.0
20260903080014 15 253 37.0 49.9 0.00 0.00 0.00 24 1015.1
20260903075517 15 247 33.8 49.9 0.00 0.00 0.00 29 1015.2
20260903075021 14 243 33.8 43.5 0.00 0.00 0.00 34 1015.2
20260903074523 14 244 32.2 43.5 0.00 0.00 0.00 38 1015.2
20260903074027 14 244 33.8 43.5 0.00 0.00 0.00 41 1015.3
20260903073529 14 247 32.2 38.6 0.00 0.00 0.00 47 1015.3
20260903073032 13 253 29.0 38.6 0.00 0.00 0.00 49 1015.4
20260903072536 13 245 27.4 38.6 0.00 0.00 0.00 49 1015.4
20260903072039 13 249 29.0 38.6 0.00 0.00 0.00 51 1015.5
20260903071541 13 247 27.4 35.4 0.00 0.00 0.00 53 1015.5
20260903071045 14 250 20.9 35.4 0.00 0.00 0.00 51 1015.5
20260903070547 14 251 22.5 35.4 0.00 0.00 0.00 48 1015.5
20260903070050 15 257 22.5 35.4 0.00 0.00 0.00 44 1015.5
20260903065553 15 262 24.1 35.4 0.00 0.00 0.00 40 1015.6
20260903065057 15 265 22.5 33.8 0.00 0.00 0.00 37 1015.6
20260903064600 15 261 20.9 35.4 0.00 0.00 0.00 34 1015.6
20260903064103 15 264 24.1 35.4 0.00 0.00 0.00 33 1015.5
20260903063605 15 268 20.9 38.6 0.00 0.00 0.00 34 1015.5
20260903063108 16 267 25.7 38.6 0.00 0.00 0.00 30 1015.5
20260903062611 16 259 27.4 38.6 0.00 0.00 0.00 30 1015.5
20260903062114 16 260 29.0 41.8 0.00 0.00 0.00 28 1015.4
20260903061617 16 263 25.7 41.8 0.00 0.00 0.00 29 1015.3
20260903061121 16 261 25.7 38.6 0.00 0.00 0.00 28 1015.3
20260903060624 16 267 25.7 38.6 0.00 0.00 0.00 29 1015.4
20260903060127 16 269 24.1 38.6 0.00 0.00 0.00 30 1015.5
20260903055630 16 264 25.7 38.6 0.00 0.00 0.00 30 1015.4
20260903055133 16 266 25.7 38.6 0.00 0.00 0.00 30 1015.4
20260903054636 16 262 30.6 41.8 0.00 0.00 0.00 28 1015.4
20260903054139 16 262 25.7 43.5 0.00 0.00 0.00 28 1015.5
20260903053641 16 260 29.0 46.7 0.00 0.00 0.00 27 1015.6
20260903053145 16 261 27.4 46.7 0.00 0.00 0.00 27 1015.5
20260903052648 16 253 33.8 43.5 0.00 0.00 0.00 27 1015.5
20260903052151 16 259 30.6 43.5 0.00 0.00 0.00 26 1015.5
20260903051157 17 257 29.0 45.1 0.00 0.00 0.00 23 1015.4
20260903050700 17 256 32.2 45.1 0.00 0.00 0.00 22 1015.5
20260903045706 17 258 35.4 45.1 0.00 0.00 0.00 21 1015.4
20260903045209 17 258 32.2 45.1 0.00 0.00 0.00 21 1015.5
20260903044712 16 251 29.0 45.1 0.00 0.00 0.00 22 1015.5
20260903044215 16 252 30.6 43.5 0.00 0.00 0.00 24 1015.4
20260903043718 16 245 33.8 43.5 0.00 0.00 0.00 25 1015.5
20260903043221 16 252 32.2 46.7 0.00 0.00 0.00 25 1015.4
20260903041730 16 250 27.4 41.8 0.00 0.00 0.00 30 1015.4
20260903034748 15 247 30.6 40.2 0.00 0.00 0.00 51 1015.1
20260903034251 15 251 30.6 38.6 0.00 0.00 0.00 56 1015.1
20260903033754 15 249 27.4 38.6 0.00 0.00 0.00 61 1015.1
20260903033257 14 249 27.4 38.6 0.00 0.00 0.00 66 1015.0
20260903032800 14 250 24.1 33.8 0.00 0.00 0.00 73 1014.8
20260903032305 14 251 24.1 33.8 0.00 0.00 0.00 75 1014.9
20260903031806 14 256 24.1 33.8 0.00 0.00 0.00 75 1014.9
20260903031309 14 257 24.1 33.8 0.00 0.00 0.00 75 1014.8
20260903030812 14 259 25.7 33.8 0.00 0.00 0.00 75 1014.7
20260903030315 15 261 22.5 32.2 0.00 0.00 0.00 74 1014.8
20260903025819 15 261 25.7 35.4 0.00 0.00 0.00 73 1014.7
20260903025321 15 261 24.1 37.0 0.00 0.00 0.00 72 1014.7
20260903024824 15 262 25.7 37.0 0.00 0.00 0.00 72 1015.5
20260903024327 15 259 27.4 37.0 0.00 0.00 0.00 71 1015.5
20260903023830 15 269 27.4 35.4 0.00 0.00 0.00 70 1015.5
20260903023333 16 260 27.4 33.8 0.00 0.00 0.00 69 1015.4
20260903022836 16 260 25.7 38.6 0.00 0.00 0.00 67 1015.4
20260903022339 16 268 25.7 38.6 0.00 0.00 0.00 66 1015.4
20260903021842 16 270 29.0 38.6 0.00 0.00 0.00 65 1015.3
20260903021345 16 272 22.5 37.0 0.00 0.00 0.00 64 1015.4
20260903020848 17 263 25.7 37.0 0.00 0.00 0.00 63 1015.3
20260903015854 17 272 29.0 38.6 0.00 0.00 0.00 60 1015.3
20260903015357 17 266 29.0 40.2 0.00 0.00 0.00 58 1015.4
20260903014900 18 267 32.2 40.2 0.00 0.00 0.00 56 1015.4
20260903014403 18 266 29.0 38.6 0.00 0.00 0.00 55 1015.4